Previsão horária em Senkov

Hoje, 30 Julho, Sexta-feira

Tempo Temperatura Precipitação Vento Pressão Humidade
00:00 +18°C° 0 mm 2 m/s 738 mmHg 97%
01:00 +18°C° 0 mm 2 m/s 738 mmHg 97%
02:00 +18°C° 0 mm 2 m/s 738 mmHg 98%
03:00 +17°C° 0 mm 2 m/s 738 mmHg 98%
04:00 +17°C° 0 mm 2 m/s 738 mmHg 98%
05:00 +17°C° 0 mm 2 m/s 738 mmHg 98%
06:00 +19°C° 0 mm 3 m/s 738 mmHg 91%
07:00 +20°C° 0 mm 4 m/s 738 mmHg 85%
08:00 +21°C° 0 mm 4 m/s 738 mmHg 79%
09:00 +23°C° 0 mm 4 m/s 738 mmHg 70%
10:00 +25°C° 0 mm 5 m/s 738 mmHg 62%
11:00 +26°C° 0 mm 5 m/s 739 mmHg 53%
12:00 +26°C° 0 mm 5 m/s 738 mmHg 52%
13:00 +26°C° 0 mm 5 m/s 738 mmHg 51%
14:00 +26°C° 0 mm 4 m/s 738 mmHg 51%
15:00 +25°C° 0 mm 4 m/s 738 mmHg 52%
16:00 +25°C° 0 mm 4 m/s 738 mmHg 53%
17:00 +23°C° 0 mm 5 m/s 738 mmHg 55%
18:00 +22°C° 0 mm 4 m/s 738 mmHg 55%
19:00 +22°C° 0 mm 4 m/s 738 mmHg 56%
20:00 +21°C° 0 mm 4 m/s 738 mmHg 56%
21:00 +20°C° 0 mm 3 m/s 738 mmHg 62%
22:00 +19°C° 0 mm 3 m/s 738 mmHg 67%
23:00 +17°C° 0 mm 3 m/s 738 mmHg 73%

Amanhã, 31 Julho, Sábado

Tempo Temperatura Precipitação Vento Pressão Humidade
00:00 +17°C° 0 mm 3 m/s 738 mmHg 76%
01:00 +16°C° 0 mm 3 m/s 738 mmHg 80%
02:00 +16°C° 0 mm 3 m/s 738 mmHg 83%
03:00 +16°C° 0 mm 3 m/s 738 mmHg 84%
04:00 +15°C° 0 mm 4 m/s 738 mmHg 85%
05:00 +14°C° 0 mm 4 m/s 738 mmHg 86%
06:00 +17°C° 0 mm 4 m/s 738 mmHg 77%
07:00 +19°C° 0 mm 5 m/s 739 mmHg 68%
08:00 +21°C° 0 mm 6 m/s 739 mmHg 59%
09:00 +23°C° 0 mm 6 m/s 739 mmHg 54%
10:00 +24°C° 0 mm 6 m/s 739 mmHg 49%
11:00 +26°C° 0 mm 7 m/s 739 mmHg 44%
12:00 +26°C° 0 mm 7 m/s 739 mmHg 42%
13:00 +27°C° 0 mm 6 m/s 739 mmHg 40%
14:00 +27°C° 0 mm 6 m/s 739 mmHg 39%
15:00 +27°C° 0 mm 5 m/s 739 mmHg 41%
16:00 +27°C° 0 mm 5 m/s 739 mmHg 43%
17:00 +27°C° 0 mm 4 m/s 739 mmHg 45%
18:00 +25°C° 0 mm 3 m/s 739 mmHg 51%
19:00 +23°C° 0 mm 1 m/s 739 mmHg 57%
20:00 +19°C° 0 mm 0 m/s 739 mmHg 64%
21:00 +21°C° 0 mm 1 m/s 739 mmHg 65%
22:00 +21°C° 0 mm 1 m/s 739 mmHg 66%
23:00 +20°C° 0 mm 1 m/s 739 mmHg 68%

Depois de amanhã, 1 Agosto, Domingo

Tempo Temperatura Precipitação Vento Pressão Humidade
00:00 +19°C° 0.5 mm 2 m/s 739 mmHg 76%
01:00 +18°C° 0.5 mm 3 m/s 740 mmHg 84%
02:00 +18°C° 0.5 mm 3 m/s 740 mmHg 93%
03:00 +18°C° 1.1 mm 3 m/s 739 mmHg 94%
04:00 +18°C° 1.1 mm 3 m/s 739 mmHg 96%
05:00 +18°C° 1.1 mm 2 m/s 738 mmHg 97%
06:00 +18°C° 0.2 mm 3 m/s 739 mmHg 96%
07:00 +19°C° 0.2 mm 3 m/s 739 mmHg 95%
08:00 +19°C° 0.2 mm 3 m/s 739 mmHg 94%
09:00 +20°C° 0.1 mm 4 m/s 739 mmHg 88%
10:00 +22°C° 0.1 mm 4 m/s 739 mmHg 81%
11:00 +23°C° 0.1 mm 4 m/s 739 mmHg 75%
12:00 +25°C° 0.1 mm 4 m/s 739 mmHg 69%
13:00 +26°C° 0.1 mm 4 m/s 739 mmHg 62%
14:00 +27°C° 0.1 mm 4 m/s 739 mmHg 56%
15:00 +27°C° 0 mm 4 m/s 739 mmHg 55%
16:00 +27°C° 0 mm 4 m/s 739 mmHg 53%
17:00 +27°C° 0 mm 4 m/s 739 mmHg 52%
18:00 +26°C° 0 mm 3 m/s 739 mmHg 56%
19:00 +24°C° 0 mm 3 m/s 739 mmHg 61%
20:00 +21°C° 0 mm 2 m/s 739 mmHg 66%
21:00 +20°C° 0 mm 2 m/s 739 mmHg 67%
22:00 +21°C° 0 mm 1 m/s 739 mmHg 68%
23:00 +20°C° 0 mm 1 m/s 739 mmHg 69%

2 Agosto, Segunda-feira

Tempo Temperatura Precipitação Vento Pressão Humidade
00:00 +19°C° 0 mm 2 m/s 739 mmHg 71%
01:00 +18°C° 0 mm 2 m/s 738 mmHg 73%
02:00 +18°C° 0 mm 2 m/s 738 mmHg 74%
03:00 +18°C° 0.1 mm 2 m/s 738 mmHg 78%
04:00 +18°C° 0.1 mm 2 m/s 737 mmHg 82%
05:00 +18°C° 0.1 mm 2 m/s 737 mmHg 86%
06:00 +18°C° 0.8 mm 3 m/s 737 mmHg 89%
07:00 +18°C° 0.8 mm 3 m/s 736 mmHg 92%
08:00 +18°C° 0.8 mm 3 m/s 736 mmHg 96%
09:00 +20°C° 0 mm 3 m/s 736 mmHg 91%
10:00 +21°C° 0 mm 3 m/s 736 mmHg 86%
11:00 +22°C° 0 mm 3 m/s 736 mmHg 81%
12:00 +22°C° 0.7 mm 4 m/s 735 mmHg 81%
13:00 +22°C° 0.7 mm 6 m/s 735 mmHg 81%
14:00 +23°C° 0.7 mm 7 m/s 735 mmHg 81%
15:00 +22°C° 0.2 mm 7 m/s 735 mmHg 81%
16:00 +20°C° 0.2 mm 7 m/s 735 mmHg 81%
17:00 +18°C° 0.2 mm 7 m/s 735 mmHg 81%
18:00 +17°C° 0 mm 6 m/s 736 mmHg 83%
19:00 +17°C° 0 mm 4 m/s 737 mmHg 85%
20:00 +17°C° 0 mm 3 m/s 738 mmHg 87%
21:00 +17°C° 0 mm 3 m/s 738 mmHg 87%
22:00 +17°C° 0 mm 4 m/s 738 mmHg 87%
23:00 +17°C° 0 mm 4 m/s 738 mmHg 86%

3 Agosto, Terça-feira

Tempo Temperatura Precipitação Vento Pressão Humidade
00:00 +15°C° 0 mm 4 m/s 738 mmHg 89%
01:00 +14°C° 0 mm 4 m/s 738 mmHg 92%
02:00 +14°C° 0 mm 3 m/s 739 mmHg 95%
03:00 +13°C° 0 mm 3 m/s 739 mmHg 95%
04:00 +13°C° 0 mm 3 m/s 739 mmHg 95%
05:00 +13°C° 0 mm 3 m/s 740 mmHg 95%
06:00 +14°C° 0 mm 4 m/s 740 mmHg 86%
07:00 +17°C° 0 mm 4 m/s 740 mmHg 76%
08:00 +19°C° 0 mm 5 m/s 741 mmHg 66%
09:00 +20°C° 0 mm 5 m/s 741 mmHg 62%
10:00 +21°C° 0 mm 5 m/s 741 mmHg 58%
11:00 +22°C° 0 mm 5 m/s 741 mmHg 54%
12:00 +22°C° 0.2 mm 5 m/s 741 mmHg 57%
13:00 +21°C° 0.2 mm 5 m/s 741 mmHg 60%
14:00 +21°C° 0.2 mm 5 m/s 742 mmHg 63%
15:00 +21°C° 0.1 mm 5 m/s 742 mmHg 62%
16:00 +21°C° 0.1 mm 4 m/s 742 mmHg 61%
17:00 +21°C° 0.1 mm 4 m/s 742 mmHg 60%
18:00 +20°C° 0 mm 3 m/s 742 mmHg 65%
19:00 +18°C° 0 mm 3 m/s 743 mmHg 71%
20:00 +17°C° 0 mm 2 m/s 743 mmHg 77%
21:00 +16°C° 0 mm 2 m/s 743 mmHg 79%
22:00 +16°C° 0 mm 2 m/s 743 mmHg 81%
23:00 +15°C° 0 mm 2 m/s 743 mmHg 83%

4 Agosto, Quarta-feira

Tempo Temperatura Precipitação Vento Pressão Humidade
00:00 +15°C° 0 mm 2 m/s 744 mmHg 83%
01:00 +15°C° 0 mm 2 m/s 744 mmHg 83%
02:00 +15°C° 0 mm 2 m/s 744 mmHg 83%
03:00 +15°C° 0 mm 2 m/s 744 mmHg 83%
04:00 +15°C° 0 mm 1 m/s 744 mmHg 84%
05:00 +15°C° 0 mm 1 m/s 744 mmHg 84%
06:00 +16°C° 0 mm 1 m/s 745 mmHg 79%
07:00 +18°C° 0 mm 1 m/s 745 mmHg 73%
08:00 +18°C° 0 mm 2 m/s 745 mmHg 68%
09:00 +19°C° 0 mm 2 m/s 745 mmHg 62%
10:00 +21°C° 0 mm 2 m/s 745 mmHg 57%
11:00 +23°C° 0 mm 2 m/s 745 mmHg 51%
12:00 +23°C° 0.1 mm 2 m/s 745 mmHg 49%
13:00 +24°C° 0.1 mm 2 m/s 745 mmHg 47%
14:00 +24°C° 0.1 mm 2 m/s 745 mmHg 46%
15:00 +24°C° 0 mm 2 m/s 745 mmHg 49%
16:00 +23°C° 0 mm 2 m/s 745 mmHg 53%
17:00 +21°C° 0 mm 2 m/s 745 mmHg 56%
18:00 +22°C° 0 mm 1 m/s 745 mmHg 58%
19:00 +21°C° 0 mm 1 m/s 745 mmHg 60%
20:00 +20°C° 0 mm 1 m/s 745 mmHg 61%
21:00 +19°C° 0 mm 1 m/s 745 mmHg 65%
22:00 +18°C° 0 mm 1 m/s 745 mmHg 69%
23:00 +16°C° 0 mm 2 m/s 745 mmHg 73%
Mostrar mais

Necessitamos do seu Consentimento

A Meteoprog e os seus Fornecedores de Serviços podem armazenar e aceder a dados pessoais como cookies, identificadores do dispositivo ou outras tecnologias semelhantes existentes no seu dispositivo e processar estes dados para personalizar conteúdos e anúncios, assim como funcionalidades nas redes sociais e análise de tráfego.

  • Armazenar e/ou aceder a informações no seu dispositivo

    Os cookies, identificadores do dispositivo ou outras informações podem ser armazenados ou acedidos no seu dispositivo, para os fins acima indicados.

  • Anúncios e conteúdos personalizados, medição de anúncios e conteúdos, dados sobre o público-alvo e desenvolvimento de produtos

    Os anúncios e os conteúdos podem ser personalizados com base num perfil. Podem ser adicionados dados adicionais para uma maior personalização dos anúncios e dos conteúdos. A eficácia dos anúncios e dos conteúdos pode ser medida. Podem ser obtidas informações sobre o público que visualizou os anúncios e os conteúdos. Estes dados podem ser usados para desenvolver ou melhorar sistemas, softwares ou a experiência do utilizador.

Ao clicar em "Eu concordo”, permitirá o uso de cookies, identificadores do dispositivo e web beacons mencionados ou outras tecnologias semelhantes. As configurações do navegador do seu dispositivo podem ser alteradas.

Para certos fins, podem ser invocados interesses legítimos ao invés de consentimento. Pode ler mais informação sobre este assunto na nossa Política de Privacidade e Cookies.